owner,sensor,date,latitude,longitude,vertical_datum,wind_speed,wind_to_direction,wind_speed_of_gust,qcFlag 
COMPS,ioos:station:USF.COMPS:ARP:1,2019-05-10T15:54:00,28.4330,-82.6670,10.0,3.11,88.69,5.58,'11111222,11111222,11111222' 
COMPS,ioos:station:USF.COMPS:ARP:1,2019-05-10T16:54:00,28.4330,-82.6670,10.0,2.49,90.47,4.5,'11111222,11111222,11111222' 
COMPS,ioos:station:USF.COMPS:ARP:1,2019-05-10T17:54:00,28.4330,-82.6670,10.0,1.84,94.87,2.93,'11111222,11111222,11111222' 
COMPS,ioos:station:USF.COMPS:ARP:1,2019-05-10T18:54:00,28.4330,-82.6670,10.0,1.49,349.0,4.01,'11111222,11111222,11111222' 
COMPS,ioos:station:USF.COMPS:ARP:1,2019-05-10T19:54:00,28.4330,-82.6670,10.0,2.33,313.61,4.8,'11111222,11111222,11111222' 
COMPS,ioos:station:USF.COMPS:ARP:1,2019-05-10T20:54:00,28.4330,-82.6670,10.0,2.37,316.11,4.01,'11111222,11111222,11111222' 
COMPS,ioos:station:USF.COMPS:ARP:1,2019-05-10T21:54:00,28.4330,-82.6670,10.0,2.81,301.97,4.11,'11111222,11111222,11111222' 
COMPS,ioos:station:USF.COMPS:ARP:1,2019-05-10T22:54:00,28.4330,-82.6670,10.0,2.64,301.56,3.23,'11111222,11111222,11111222' 
COMPS,ioos:station:USF.COMPS:ARP:1,2019-05-10T23:54:00,28.4330,-82.6670,10.0,2.09,315.98,4.01,'11111222,11111222,11111222' 
COMPS,ioos:station:USF.COMPS:ARP:1,2019-05-11T00:54:00,28.4330,-82.6670,10.0,1.15,334.54,2.84,'11111222,11111222,11111222' 
COMPS,ioos:station:USF.COMPS:ARP:1,2019-05-11T01:54:00,28.4330,-82.6670,10.0,1.18,69.52,2.25,'11111222,11111222,11111222' 
COMPS,ioos:station:USF.COMPS:ARP:1,2019-05-11T02:54:00,28.4330,-82.6670,10.0,2.59,111.39,3.72,'11111222,11111222,11111222' 
COMPS,ioos:station:USF.COMPS:ARP:1,2019-05-11T03:54:00,28.4330,-82.6670,10.0,1.12,101.18,1.86,'11111222,11111222,11111222' 
COMPS,ioos:station:USF.COMPS:ARP:1,2019-05-11T04:54:00,28.4330,-82.6670,10.0,1.05,113.97,2.05,'11111222,11111222,11111222' 
COMPS,ioos:station:USF.COMPS:ARP:1,2019-05-11T05:54:00,28.4330,-82.6670,10.0,1.85,108.16,3.03,'11111222,11111222,11111222' 
COMPS,ioos:station:USF.COMPS:ARP:1,2019-05-11T06:54:00,28.4330,-82.6670,10.0,1.73,104.75,2.35,'11111222,11111222,11111222' 
COMPS,ioos:station:USF.COMPS:ARP:1,2019-05-11T07:54:00,28.4330,-82.6670,10.0,1.82,116.18,2.93,'11111222,11111222,11111222' 
COMPS,ioos:station:USF.COMPS:ARP:1,2019-05-11T08:54:00,28.4330,-82.6670,10.0,2.37,106.92,3.33,'11111222,11111222,11111222' 
COMPS,ioos:station:USF.COMPS:ARP:1,2019-05-11T09:54:00,28.4330,-82.6670,10.0,2.47,99.82,3.42,'11111222,11111222,11111222' 
COMPS,ioos:station:USF.COMPS:ARP:1,2019-05-11T10:54:00,28.4330,-82.6670,10.0,2.13,101.81,3.13,'11111222,11111222,11111222' 
COMPS,ioos:station:USF.COMPS:ARP:1,2019-05-11T11:54:00,28.4330,-82.6670,10.0,2.13,110.35,3.33,'11111222,11111222,11111222' 
COMPS,ioos:station:USF.COMPS:ARP:1,2019-05-13T12:54:00,28.4330,-82.6670,10.0,5.23,266.5,7.05,'11111222,11111222,11111222' 
COMPS,ioos:station:USF.COMPS:ARP:1,2019-05-13T13:54:00,28.4330,-82.6670,10.0,7.03,265.83,10.48,'11111222,11111222,11111222' 
COMPS,ioos:station:USF.COMPS:ARP:1,2019-05-13T14:54:00,28.4330,-82.6670,10.0,5.95,273.25,8.52,'11111222,11111222,11111222' 
COMPS,ioos:station:USF.COMPS:ARP:1,2019-05-13T15:54:00,28.4330,-82.6670,10.0,3.51,261.48,4.41,'11111222,11111222,11111222' 
COMPS,ioos:station:USF.COMPS:ARP:1,2019-05-13T16:54:00,28.4330,-82.6670,10.0,9.05,299.26,12.44,'11111222,11111222,11111222' 
COMPS,ioos:station:USF.COMPS:ARP:1,2019-05-13T17:54:00,28.4330,-82.6670,10.0,3.62,311.99,6.17,'11111222,11111222,11111222' 
COMPS,ioos:station:USF.COMPS:ARP:1,2019-05-13T18:54:00,28.4330,-82.6670,10.0,6.35,294.52,9.3,'11111222,11111222,11111222' 
COMPS,ioos:station:USF.COMPS:ARP:1,2019-05-13T19:54:00,28.4330,-82.6670,10.0,1.51,149.16,4.31,'11111222,11111222,11111222' 
COMPS,ioos:station:USF.COMPS:ARP:1,2019-05-13T20:54:00,28.4330,-82.6670,10.0,1.26,162.16,3.33,'11111222,11111222,11111222' 
COMPS,ioos:station:USF.COMPS:ARP:1,2019-05-13T21:54:00,28.4330,-82.6670,10.0,1.02,133.96,2.45,'11111222,11111222,11111222' 
COMPS,ioos:station:USF.COMPS:ARP:1,2019-05-13T22:54:00,28.4330,-82.6670,10.0,1.94,255.29,3.52,'11111222,11111222,11111222' 
COMPS,ioos:station:USF.COMPS:ARP:1,2019-05-13T23:54:00,28.4330,-82.6670,10.0,2.11,267.9,3.13,'11111222,11111222,11111222' 
COMPS,ioos:station:USF.COMPS:ARP:1,2019-05-14T00:54:00,28.4330,-82.6670,10.0,6.07,294.5,7.44,'11111222,11111222,11111222' 
COMPS,ioos:station:USF.COMPS:ARP:1,2019-05-14T01:54:00,28.4330,-82.6670,10.0,5.53,300.15,6.76,'11111222,11111222,11111222' 
COMPS,ioos:station:USF.COMPS:ARP:1,2019-05-14T02:54:00,28.4330,-82.6670,10.0,5.84,302.05,6.95,'11111222,11111222,11111222' 
COMPS,ioos:station:USF.COMPS:ARP:1,2019-05-14T03:54:00,28.4330,-82.6670,10.0,4.2,298.41,5.39,'11111222,11111222,11111222' 
COMPS,ioos:station:USF.COMPS:ARP:1,2019-05-14T04:54:00,28.4330,-82.6670,10.0,3.93,292.57,5.39,'11111222,11111222,11111222' 
COMPS,ioos:station:USF.COMPS:ARP:1,2019-05-14T05:54:00,28.4330,-82.6670,10.0,3.45,292.73,4.41,'11111222,11111222,11111222' 
COMPS,ioos:station:USF.COMPS:ARP:1,2019-05-14T06:54:00,28.4330,-82.6670,10.0,3.58,309.37,4.9,'11111222,11111222,11111222' 
COMPS,ioos:station:USF.COMPS:ARP:1,2019-05-14T07:54:00,28.4330,-82.6670,10.0,3.32,310.14,4.7,'11111222,11111222,11111222' 
COMPS,ioos:station:USF.COMPS:ARP:1,2019-05-14T08:54:00,28.4330,-82.6670,10.0,4.09,304.28,5.39,'11111222,11111222,11111222' 
COMPS,ioos:station:USF.COMPS:ARP:1,2019-05-14T09:54:00,28.4330,-82.6670,10.0,3.54,302.83,4.8,'11111222,11111222,11111222' 
COMPS,ioos:station:USF.COMPS:ARP:1,2019-05-14T10:54:00,28.4330,-82.6670,10.0,3.04,297.11,3.91,'11111222,11111222,11111222' 
COMPS,ioos:station:USF.COMPS:ARP:1,2019-05-14T11:54:00,28.4330,-82.6670,10.0,2.36,297.61,2.93,'11111222,11111222,11111222' 
COMPS,ioos:station:USF.COMPS:ARP:1,2019-05-14T12:54:00,28.4330,-82.6670,10.0,1.79,292.5,2.25,'11111222,11111222,11111222' 
COMPS,ioos:station:USF.COMPS:ARP:1,2019-05-14T13:54:00,28.4330,-82.6670,10.0,2.28,288.22,2.93,'11111222,11111222,11111222' 
COMPS,ioos:station:USF.COMPS:ARP:1,2019-05-14T14:54:00,28.4330,-82.6670,10.0,2.31,283.99,2.84,'11111222,11111222,11111222' 
COMPS,ioos:station:USF.COMPS:ARP:1,2019-05-14T15:54:00,28.4330,-82.6670,10.0,1.21,313.89,2.45,'11111222,11111222,11111222' 
COMPS,ioos:station:USF.COMPS:ARP:1,2019-05-14T16:54:00,28.4330,-82.6670,10.0,1.72,317.95,3.03,'11111222,11111222,11111222' 
COMPS,ioos:station:USF.COMPS:ARP:1,2019-05-14T17:54:00,28.4330,-82.6670,10.0,2.41,311.21,4.01,'11111222,11111222,11111222' 
COMPS,ioos:station:USF.COMPS:ARP:1,2019-05-14T18:54:00,28.4330,-82.6670,10.0,3.77,304.13,4.8,'11111222,11111222,11111222' 
COMPS,ioos:station:USF.COMPS:ARP:1,2019-05-14T19:54:00,28.4330,-82.6670,10.0,2.45,311.34,5.29,'11111222,11111222,11111222' 
COMPS,ioos:station:USF.COMPS:ARP:1,2019-05-14T20:54:00,28.4330,-82.6670,10.0,1.26,4.53,3.72,'11111222,11111222,11111222' 
COMPS,ioos:station:USF.COMPS:ARP:1,2019-05-14T21:54:00,28.4330,-82.6670,10.0,1.33,328.92,3.13,'11111222,11111222,11111222' 
COMPS,ioos:station:USF.COMPS:ARP:1,2019-05-14T22:54:00,28.4330,-82.6670,10.0,1.98,319.02,3.72,'11111222,11111222,11111222' 
COMPS,ioos:station:USF.COMPS:ARP:1,2019-05-14T23:54:00,28.4330,-82.6670,10.0,3.25,303.39,4.21,'11111222,11111222,11111222' 
COMPS,ioos:station:USF.COMPS:ARP:1,2019-05-15T00:54:00,28.4330,-82.6670,10.0,3.53,308.24,4.5,'11111222,11111222,11111222' 
COMPS,ioos:station:USF.COMPS:ARP:1,2019-05-15T01:54:00,28.4330,-82.6670,10.0,2.21,317.42,4.11,'11111222,11111222,11111222' 
COMPS,ioos:station:USF.COMPS:ARP:1,2019-05-15T02:54:00,28.4330,-82.6670,10.0,1.22,319.95,2.54,'11111222,11111222,11111222' 
COMPS,ioos:station:USF.COMPS:ARP:1,2019-05-15T03:54:00,28.4330,-82.6670,10.0,0.83,9.72,3.13,'11111222,11111222,11111222' 
COMPS,ioos:station:USF.COMPS:ARP:1,2019-05-15T04:54:00,28.4330,-82.6670,10.0,1.21,73.67,1.66,'11111222,11111222,11111222' 
COMPS,ioos:station:USF.COMPS:ARP:1,2019-05-15T05:54:00,28.4330,-82.6670,10.0,0.5,63.98,1.56,'11111222,11111222,11111222' 
COMPS,ioos:station:USF.COMPS:ARP:1,2019-05-15T06:54:00,28.4330,-82.6670,10.0,1.38,75.69,2.05,'11111222,11111222,11111222' 
COMPS,ioos:station:USF.COMPS:ARP:1,2019-05-15T07:54:00,28.4330,-82.6670,10.0,1.46,59.73,2.93,'11111222,11111222,11111222' 
COMPS,ioos:station:USF.COMPS:ARP:1,2019-05-15T08:54:00,28.4330,-82.6670,10.0,1.06,67.29,2.25,'11111222,11111222,11111222' 
COMPS,ioos:station:USF.COMPS:ARP:1,2019-05-15T09:54:00,28.4330,-82.6670,10.0,0.77,112.96,1.17,'11111222,11111222,11111222' 
COMPS,ioos:station:USF.COMPS:ARP:1,2019-05-15T10:54:00,28.4330,-82.6670,10.0,0.2,23.58,0.58,'11111222,11111222,11111222' 
COMPS,ioos:station:USF.COMPS:ARP:1,2019-05-15T11:54:00,28.4330,-82.6670,10.0,1.17,68.8,1.66,'11111222,11111222,11111222' 
COMPS,ioos:station:USF.COMPS:ARP:1,2019-05-15T12:54:00,28.4330,-82.6670,10.0,1.49,76.13,2.15,'11111222,11111222,11111222' 
COMPS,ioos:station:USF.COMPS:ARP:1,2019-05-15T13:54:00,28.4330,-82.6670,10.0,2.4,83.02,4.01,'11111222,11111222,11111222' 
COMPS,ioos:station:USF.COMPS:ARP:1,2019-05-15T14:54:00,28.4330,-82.6670,10.0,2.25,91.36,3.42,'11111222,11111222,11111222' 
COMPS,ioos:station:USF.COMPS:ARP:1,2019-05-15T15:54:00,28.4330,-82.6670,10.0,2.0,95.71,4.5,'11111222,11111222,11111222' 
COMPS,ioos:station:USF.COMPS:ARP:1,2019-05-15T16:54:00,28.4330,-82.6670,10.0,1.41,319.78,3.33,'11111222,11111222,11111222' 
COMPS,ioos:station:USF.COMPS:ARP:1,2019-05-15T17:54:00,28.4330,-82.6670,10.0,2.07,317.15,3.52,'11111222,11111222,11111222' 
COMPS,ioos:station:USF.COMPS:ARP:1,2019-05-15T18:54:00,28.4330,-82.6670,10.0,3.39,309.33,5.29,'11111222,11111222,11111222' 
COMPS,ioos:station:USF.COMPS:ARP:1,2019-05-15T19:54:00,28.4330,-82.6670,10.0,2.82,314.92,4.11,'11111222,11111222,11111222' 
COMPS,ioos:station:USF.COMPS:ARP:1,2019-05-15T20:54:00,28.4330,-82.6670,10.0,2.04,321.55,4.41,'11111222,11111222,11111222' 
COMPS,ioos:station:USF.COMPS:ARP:1,2019-05-15T21:54:00,28.4330,-82.6670,10.0,2.18,328.39,4.11,'11111222,11111222,11111222' 
COMPS,ioos:station:USF.COMPS:ARP:1,2019-05-15T22:54:00,28.4330,-82.6670,10.0,1.89,323.49,4.21,'11111222,11111222,11111222' 
COMPS,ioos:station:USF.COMPS:ARP:1,2019-05-15T23:54:00,28.4330,-82.6670,10.0,1.68,335.27,3.23,'11111222,11111222,11111222' 
COMPS,ioos:station:USF.COMPS:ARP:1,2019-05-16T00:54:00,28.4330,-82.6670,10.0,1.46,342.14,4.7,'11111222,11111222,11111222' 
COMPS,ioos:station:USF.COMPS:ARP:1,2019-05-16T01:54:00,28.4330,-82.6670,10.0,1.62,61.72,3.42,'11111222,11111222,11111222' 
COMPS,ioos:station:USF.COMPS:ARP:1,2019-05-16T02:54:00,28.4330,-82.6670,10.0,2.46,71.33,4.01,'11111222,11111222,11111222' 
COMPS,ioos:station:USF.COMPS:ARP:1,2019-05-16T03:54:00,28.4330,-82.6670,10.0,2.58,111.07,4.7,'11111222,11111222,11111222' 
COMPS,ioos:station:USF.COMPS:ARP:1,2019-05-16T04:54:00,28.4330,-82.6670,10.0,2.07,104.95,3.33,'11111222,11111222,11111222' 
COMPS,ioos:station:USF.COMPS:ARP:1,2019-05-16T05:54:00,28.4330,-82.6670,10.0,1.83,97.22,2.64,'11111222,11111222,11111222' 
COMPS,ioos:station:USF.COMPS:ARP:1,2019-05-16T06:54:00,28.4330,-82.6670,10.0,1.72,81.55,2.54,'11111222,11111222,11111222' 
COMPS,ioos:station:USF.COMPS:ARP:1,2019-05-16T07:54:00,28.4330,-82.6670,10.0,1.79,85.25,2.54,'11111222,11111222,11111222' 
COMPS,ioos:station:USF.COMPS:ARP:1,2019-05-16T08:54:00,28.4330,-82.6670,10.0,1.6,91.41,2.54,'11111222,11111222,11111222' 
COMPS,ioos:station:USF.COMPS:ARP:1,2019-05-16T09:54:00,28.4330,-82.6670,10.0,1.84,93.93,2.84,'11111222,11111222,11111222' 
COMPS,ioos:station:USF.COMPS:ARP:1,2019-05-16T10:54:00,28.4330,-82.6670,10.0,2.08,99.43,3.03,'11111222,11111222,11111222' 
COMPS,ioos:station:USF.COMPS:ARP:1,2019-05-16T11:54:00,28.4330,-82.6670,10.0,2.22,94.51,3.23,'11111222,11111222,11111222' 
COMPS,ioos:station:USF.COMPS:ARP:1,2019-05-16T12:54:00,28.4330,-82.6670,10.0,2.54,106.19,4.31,'11111222,11111222,11111222' 
COMPS,ioos:station:USF.COMPS:ARP:1,2019-05-16T13:54:00,28.4330,-82.6670,10.0,3.01,107.1,4.41,'11111222,11111222,11111222' 
COMPS,ioos:station:USF.COMPS:ARP:1,2019-05-16T14:54:00,28.4330,-82.6670,10.0,1.61,104.45,2.74,'11111222,11111222,11111222' 
COMPS,ioos:station:USF.COMPS:ARP:1,2019-05-16T15:54:00,28.4330,-82.6670,10.0,1.82,96.12,3.33,'11111222,11111222,11111222' 
COMPS,ioos:station:USF.COMPS:ARP:1,2019-05-16T16:54:00,28.4330,-82.6670,10.0,2.06,317.6,3.82,'11111222,11111222,11111222' 
COMPS,ioos:station:USF.COMPS:ARP:1,2019-05-16T17:54:00,28.4330,-82.6670,10.0,2.15,318.34,3.52,'11111222,11111222,11111222' 
COMPS,ioos:station:USF.COMPS:ARP:1,2019-05-16T18:54:00,28.4330,-82.6670,10.0,2.7,313.9,4.8,'11111222,11111222,11111222' 
COMPS,ioos:station:USF.COMPS:ARP:1,2019-05-16T19:54:00,28.4330,-82.6670,10.0,2.78,317.5,4.9,'11111222,11111222,11111222' 
COMPS,ioos:station:USF.COMPS:ARP:1,2019-05-16T20:54:00,28.4330,-82.6670,10.0,2.38,329.13,4.9,'11111222,11111222,11111222' 
COMPS,ioos:station:USF.COMPS:ARP:1,2019-05-16T21:54:00,28.4330,-82.6670,10.0,1.47,344.77,4.41,'11111222,11111222,11111222' 
COMPS,ioos:station:USF.COMPS:ARP:1,2019-05-16T22:54:00,28.4330,-82.6670,10.0,1.34,342.71,4.31,'11111222,11111222,11111222' 
COMPS,ioos:station:USF.COMPS:ARP:1,2019-05-16T23:54:00,28.4330,-82.6670,10.0,0.65,22.53,2.25,'11111222,11111222,11111222' 
COMPS,ioos:station:USF.COMPS:ARP:1,2019-05-17T00:54:00,28.4330,-82.6670,10.0,0.77,53.24,2.15,'11111222,11111222,11111222' 
COMPS,ioos:station:USF.COMPS:ARP:1,2019-05-17T01:54:00,28.4330,-82.6670,10.0,1.75,114.69,2.64,'11111222,11111222,11111222' 
COMPS,ioos:station:USF.COMPS:ARP:1,2019-05-17T02:54:00,28.4330,-82.6670,10.0,1.92,105.72,2.93,'11111222,11111222,11111222' 
COMPS,ioos:station:USF.COMPS:ARP:1,2019-05-17T03:54:00,28.4330,-82.6670,10.0,1.65,103.6,2.54,'11111222,11111222,11111222' 
COMPS,ioos:station:USF.COMPS:ARP:1,2019-05-17T04:54:00,28.4330,-82.6670,10.0,1.32,113.03,2.25,'11111222,11111222,11111222' 
COMPS,ioos:station:USF.COMPS:ARP:1,2019-05-17T05:54:00,28.4330,-82.6670,10.0,1.76,102.65,2.45,'11111222,11111222,11111222' 
COMPS,ioos:station:USF.COMPS:ARP:1,2019-05-17T06:54:00,28.4330,-82.6670,10.0,1.41,107.66,2.15,'11111222,11111222,11111222' 
COMPS,ioos:station:USF.COMPS:ARP:1,2019-05-17T07:54:00,28.4330,-82.6670,10.0,1.38,107.57,2.15,'11111222,11111222,11111222' 
COMPS,ioos:station:USF.COMPS:ARP:1,2019-05-17T08:54:00,28.4330,-82.6670,10.0,1.58,115.78,2.45,'11111222,11111222,11111222' 
COMPS,ioos:station:USF.COMPS:ARP:1,2019-05-17T09:54:00,28.4330,-82.6670,10.0,2.21,106.9,3.03,'11111222,11111222,11111222' 
COMPS,ioos:station:USF.COMPS:ARP:1,2019-05-17T10:54:00,28.4330,-82.6670,10.0,2.03,109.86,3.03,'11111222,11111222,11111222' 
COMPS,ioos:station:USF.COMPS:ARP:1,2019-05-17T11:54:00,28.4330,-82.6670,10.0,1.36,112.44,2.93,'11111222,11111222,11111222' 
COMPS,ioos:station:USF.COMPS:ARP:1,2019-05-17T12:54:00,28.4330,-82.6670,10.0,1.14,123.16,2.93,'11111222,11111222,11111222' 
COMPS,ioos:station:USF.COMPS:ARP:1,2019-05-17T13:54:00,28.4330,-82.6670,10.0,1.18,101.88,2.35,'11111222,11111222,11111222' 
COMPS,ioos:station:USF.COMPS:ARP:1,2019-05-17T14:54:00,28.4330,-82.6670,10.0,1.35,99.87,2.35,'11111222,11111222,11111222' 
COMPS,ioos:station:USF.COMPS:ARP:1,2019-05-17T15:54:00,28.4330,-82.6670,10.0,1.03,309.37,1.95,'11111222,11111222,11111222' 
COMPS,ioos:station:USF.COMPS:ARP:1,2019-05-17T16:54:00,28.4330,-82.6670,10.0,2.34,307.93,4.5,'11111222,11111222,11111222' 
COMPS,ioos:station:USF.COMPS:ARP:1,2019-05-17T17:54:00,28.4330,-82.6670,10.0,2.95,307.41,4.21,'11111222,11111222,11111222' 
COMPS,ioos:station:USF.COMPS:ARP:1,2019-05-17T18:54:00,28.4330,-82.6670,10.0,2.8,309.81,4.21,'11111222,11111222,11111222' 
COMPS,ioos:station:USF.COMPS:ARP:1,2019-05-17T19:54:00,28.4330,-82.6670,10.0,2.16,317.39,3.62,'11111222,11111222,11111222' 
COMPS,ioos:station:USF.COMPS:ARP:1,2019-05-17T20:54:00,28.4330,-82.6670,10.0,3.62,309.68,5.19,'11111222,11111222,11111222' 
COMPS,ioos:station:USF.COMPS:ARP:1,2019-05-17T21:54:00,28.4330,-82.6670,10.0,4.12,305.84,4.99,'11111222,11111222,11111222' 
COMPS,ioos:station:USF.COMPS:ARP:1,2019-05-17T22:54:00,28.4330,-82.6670,10.0,1.35,336.17,3.13,'11111222,11111222,11111222' 
COMPS,ioos:station:USF.COMPS:ARP:1,2019-05-17T23:54:00,28.4330,-82.6670,10.0,0.35,352.5,1.17,'11111222,11111222,11111222' 
COMPS,ioos:station:USF.COMPS:ARP:1,2019-05-18T00:54:00,28.4330,-82.6670,10.0,0.4,85.87,0.78,'11111222,11111222,11111222' 
COMPS,ioos:station:USF.COMPS:ARP:1,2019-05-18T01:54:00,28.4330,-82.6670,10.0,0.95,88.93,1.46,'11111222,11111222,11111222' 
COMPS,ioos:station:USF.COMPS:ARP:1,2019-05-18T02:54:00,28.4330,-82.6670,10.0,0.87,85.25,1.17,'11111222,11111222,11111222' 
COMPS,ioos:station:USF.COMPS:ARP:1,2019-05-18T03:54:00,28.4330,-82.6670,10.0,0.78,106.32,1.17,'11111222,11111222,11111222' 
COMPS,ioos:station:USF.COMPS:ARP:1,2019-05-18T04:54:00,28.4330,-82.6670,10.0,0.64,72.18,1.07,'11111222,11111222,11111222' 
COMPS,ioos:station:USF.COMPS:ARP:1,2019-05-18T05:54:00,28.4330,-82.6670,10.0,0.19,101.44,0.58,'11111222,11111222,11111222' 
COMPS,ioos:station:USF.COMPS:ARP:1,2019-05-18T06:54:00,28.4330,-82.6670,10.0,0.79,80.45,1.17,'11111222,11111222,11111222' 
COMPS,ioos:station:USF.COMPS:ARP:1,2019-05-18T07:54:00,28.4330,-82.6670,10.0,0.58,108.15,0.97,'11111222,11111222,11111222' 
COMPS,ioos:station:USF.COMPS:ARP:1,2019-05-18T08:54:00,28.4330,-82.6670,10.0,1.16,111.3,2.05,'11111222,11111222,11111222' 
COMPS,ioos:station:USF.COMPS:ARP:1,2019-05-18T09:54:00,28.4330,-82.6670,10.0,1.72,100.89,2.35,'11111222,11111222,11111222' 
COMPS,ioos:station:USF.COMPS:ARP:1,2019-05-18T10:54:00,28.4330,-82.6670,10.0,1.73,107.75,2.25,'11111222,11111222,11111222' 
COMPS,ioos:station:USF.COMPS:ARP:1,2019-05-18T11:54:00,28.4330,-82.6670,10.0,1.67,106.78,2.54,'11111222,11111222,11111222' 
COMPS,ioos:station:USF.COMPS:ARP:1,2019-05-18T12:54:00,28.4330,-82.6670,10.0,1.4,138.14,2.93,'11111222,11111222,11111222' 
COMPS,ioos:station:USF.COMPS:ARP:1,2019-05-18T13:54:00,28.4330,-82.6670,10.0,1.46,114.31,2.64,'11111222,11111222,11111222' 
COMPS,ioos:station:USF.COMPS:ARP:1,2019-05-18T14:54:00,28.4330,-82.6670,10.0,1.49,106.37,2.54,'11111222,11111222,11111222' 
COMPS,ioos:station:USF.COMPS:ARP:1,2019-05-18T15:54:00,28.4330,-82.6670,10.0,2.64,309.51,3.72,'11111222,11111222,11111222' 
COMPS,ioos:station:USF.COMPS:ARP:1,2019-05-18T16:54:00,28.4330,-82.6670,10.0,3.95,305.22,4.9,'11111222,11111222,11111222' 
COMPS,ioos:station:USF.COMPS:ARP:1,2019-05-18T17:54:00,28.4330,-82.6670,10.0,2.64,309.6,3.72,'11111222,11111222,11111222' 
COMPS,ioos:station:USF.COMPS:ARP:1,2019-05-18T18:54:00,28.4330,-82.6670,10.0,2.23,309.2,3.72,'11111222,11111222,11111222' 
COMPS,ioos:station:USF.COMPS:ARP:1,2019-05-18T19:54:00,28.4330,-82.6670,10.0,1.85,330.11,4.01,'11111222,11111222,11111222' 
COMPS,ioos:station:USF.COMPS:ARP:1,2019-05-18T20:54:00,28.4330,-82.6670,10.0,2.13,325.06,4.21,'11111222,11111222,11111222' 
COMPS,ioos:station:USF.COMPS:ARP:1,2019-05-18T21:54:00,28.4330,-82.6670,10.0,1.47,323.23,3.52,'11111222,11111222,11111222' 
COMPS,ioos:station:USF.COMPS:ARP:1,2019-05-18T22:54:00,28.4330,-82.6670,10.0,1.29,342.0,3.23,'11111222,11111222,11111222' 
COMPS,ioos:station:USF.COMPS:ARP:1,2019-05-18T23:54:00,28.4330,-82.6670,10.0,0.36,63.27,0.78,'11111222,11111222,11111222' 
COMPS,ioos:station:USF.COMPS:ARP:1,2019-05-19T00:54:00,28.4330,-82.6670,10.0,0.44,91.08,0.68,'11111222,11111222,11111222' 
COMPS,ioos:station:USF.COMPS:ARP:1,2019-05-19T01:54:00,28.4330,-82.6670,10.0,1.79,106.37,2.64,'11111222,11111222,11111222' 
COMPS,ioos:station:USF.COMPS:ARP:1,2019-05-19T02:54:00,28.4330,-82.6670,10.0,1.8,104.19,2.64,'11111222,11111222,11111222' 
COMPS,ioos:station:USF.COMPS:ARP:1,2019-05-19T03:54:00,28.4330,-82.6670,10.0,2.76,114.62,3.62,'11111222,11111222,11111222' 
COMPS,ioos:station:USF.COMPS:ARP:1,2019-05-19T04:54:00,28.4330,-82.6670,10.0,2.56,106.64,3.62,'11111222,11111222,11111222' 
COMPS,ioos:station:USF.COMPS:ARP:1,2019-05-19T05:54:00,28.4330,-82.6670,10.0,1.7,112.75,3.13,'11111222,11111222,11111222' 
COMPS,ioos:station:USF.COMPS:ARP:1,2019-05-19T06:54:00,28.4330,-82.6670,10.0,1.72,109.6,2.84,'11111222,11111222,11111222' 
COMPS,ioos:station:USF.COMPS:ARP:1,2019-05-19T07:54:00,28.4330,-82.6670,10.0,1.95,105.5,2.74,'11111222,11111222,11111222' 
COMPS,ioos:station:USF.COMPS:ARP:1,2019-05-19T08:54:00,28.4330,-82.6670,10.0,2.5,98.78,3.42,'11111222,11111222,11111222' 
COMPS,ioos:station:USF.COMPS:ARP:1,2019-05-19T09:54:00,28.4330,-82.6670,10.0,2.3,104.18,3.72,'11111222,11111222,11111222' 
COMPS,ioos:station:USF.COMPS:ARP:1,2019-05-19T10:54:00,28.4330,-82.6670,10.0,2.08,107.54,3.13,'11111222,11111222,11111222' 
COMPS,ioos:station:USF.COMPS:ARP:1,2019-05-19T11:54:00,28.4330,-82.6670,10.0,2.77,107.89,4.31,'11111222,11111222,11111222' 
COMPS,ioos:station:USF.COMPS:ARP:1,2019-05-19T12:54:00,28.4330,-82.6670,10.0,2.24,107.16,3.52,'11111222,11111222,11111222' 
COMPS,ioos:station:USF.COMPS:ARP:1,2019-05-19T13:54:00,28.4330,-82.6670,10.0,1.12,130.65,2.84,'11111222,11111222,11111222' 
COMPS,ioos:station:USF.COMPS:ARP:1,2019-05-19T14:54:00,28.4330,-82.6670,10.0,0.96,94.07,1.86,'11111222,11111222,11111222' 
COMPS,ioos:station:USF.COMPS:ARP:1,2019-05-19T15:54:00,28.4330,-82.6670,10.0,3.65,304.59,4.7,'11111222,11111222,11111222' 
COMPS,ioos:station:USF.COMPS:ARP:1,2019-05-19T16:54:00,28.4330,-82.6670,10.0,3.63,307.11,4.31,'11111222,11111222,11111222' 
COMPS,ioos:station:USF.COMPS:ARP:1,2019-05-19T17:54:00,28.4330,-82.6670,10.0,3.57,307.59,4.7,'11111222,11111222,11111222' 
COMPS,ioos:station:USF.COMPS:ARP:1,2019-05-19T18:54:00,28.4330,-82.6670,10.0,3.45,304.61,4.5,'11111222,11111222,11111222' 
COMPS,ioos:station:USF.COMPS:ARP:1,2019-05-19T19:54:00,28.4330,-82.6670,10.0,2.65,309.88,4.7,'11111222,11111222,11111222' 
COMPS,ioos:station:USF.COMPS:ARP:1,2019-05-19T20:54:00,28.4330,-82.6670,10.0,2.35,321.53,4.01,'11111222,11111222,11111222' 
COMPS,ioos:station:USF.COMPS:ARP:1,2019-05-19T21:54:00,28.4330,-82.6670,10.0,4.24,308.04,5.19,'11111222,11111222,11111222' 
COMPS,ioos:station:USF.COMPS:ARP:1,2019-05-19T22:54:00,28.4330,-82.6670,10.0,2.19,322.73,4.41,'11111222,11111222,11111222' 
COMPS,ioos:station:USF.COMPS:ARP:1,2019-05-19T23:54:00,28.4330,-82.6670,10.0,1.65,324.32,3.03,'11111222,11111222,11111222' 
COMPS,ioos:station:USF.COMPS:ARP:1,2019-05-20T00:54:00,28.4330,-82.6670,10.0,1.06,330.24,2.05,'11111222,11111222,11111222' 
COMPS,ioos:station:USF.COMPS:ARP:1,2019-05-20T01:54:00,28.4330,-82.6670,10.0,0.89,340.66,1.86,'11111222,11111222,11111222' 
COMPS,ioos:station:USF.COMPS:ARP:1,2019-05-20T02:54:00,28.4330,-82.6670,10.0,0.32,74.77,0.58,'11111222,11111222,11111222' 
COMPS,ioos:station:USF.COMPS:ARP:1,2019-05-20T03:54:00,28.4330,-82.6670,10.0,1.35,109.26,2.15,'11111222,11111222,11111222' 
COMPS,ioos:station:USF.COMPS:ARP:1,2019-05-20T04:54:00,28.4330,-82.6670,10.0,1.07,111.22,1.95,'11111222,11111222,11111222' 
COMPS,ioos:station:USF.COMPS:ARP:1,2019-05-20T05:54:00,28.4330,-82.6670,10.0,1.27,97.94,1.86,'11111222,11111222,11111222' 
COMPS,ioos:station:USF.COMPS:ARP:1,2019-05-20T06:54:00,28.4330,-82.6670,10.0,1.31,102.58,2.05,'11111222,11111222,11111222' 
COMPS,ioos:station:USF.COMPS:ARP:1,2019-05-20T07:54:00,28.4330,-82.6670,10.0,1.41,93.15,2.05,'11111222,11111222,11111222' 
COMPS,ioos:station:USF.COMPS:ARP:1,2019-05-20T08:54:00,28.4330,-82.6670,10.0,1.63,103.8,2.15,'11111222,11111222,11111222' 
COMPS,ioos:station:USF.COMPS:ARP:1,2019-05-20T09:54:00,28.4330,-82.6670,10.0,2.01,105.66,3.42,'11111222,11111222,11111222' 
COMPS,ioos:station:USF.COMPS:ARP:1,2019-05-20T10:54:00,28.4330,-82.6670,10.0,2.01,103.39,3.03,'11111222,11111222,11111222' 
COMPS,ioos:station:USF.COMPS:ARP:1,2019-05-20T11:54:00,28.4330,-82.6670,10.0,1.81,108.96,3.13,'11111222,11111222,11111222' 
COMPS,ioos:station:USF.COMPS:ARP:1,2019-05-20T12:54:00,28.4330,-82.6670,10.0,1.66,97.71,2.84,'11111222,11111222,11111222' 
COMPS,ioos:station:USF.COMPS:ARP:1,2019-05-20T13:54:00,28.4330,-82.6670,10.0,0.6,38.16,1.46,'11111222,11111222,11111222' 
COMPS,ioos:station:USF.COMPS:ARP:1,2019-05-20T14:54:00,28.4330,-82.6670,10.0,2.7,301.52,3.03,'11111222,11111222,11111222' 
COMPS,ioos:station:USF.COMPS:ARP:1,2019-05-20T15:54:00,28.4330,-82.6670,10.0,3.22,308.99,4.6,'11111222,11111222,11111222' 